Tracking 29042 objects as of 20-Jun-2024
HD Live streaming from Space Station
objects crossing your sky now

KAZEOSAT 2

Track KAZEOSAT 2 now!
10-day predictions
KAZEOSAT 2 is classified as:


NORAD ID: 40010
Int'l Code: 2014-033A
Perigee: 620.5 km
Apogee: 636.5 km
Inclination: 97.6 °
Period: 97.1 minutes
Semi major axis: 6999 km
RCS: Unknown
Launch date: June 19, 2014
Source: Kazakhstan (KAZ)
Launch site: Orenburg, Russia (OREN)
Your satellite tracking list
Your tracking list is empty




NASA's NSSDC Master Catalog

Two Line Element Set (TLE):
1 40010U 14033A   24172.42605113  .00000666  00000-0  89048-4 0  9995
2 40010  97.6201  37.3493 0011406 190.6418 169.4556 14.82527907541148
Source of the keplerian elements: AFSPC